Regional Weather Roundup
Issued by NWS Albany, NY

Home | Current Version | Previous Version | Text Only | Print | Product List | Glossary On
Versions: 1 2 3 4 5 6 7 8 9 10 11 12 13 14 15 16 17 18 19 20 21 22 23 24 25 26 27 28 29 30 31 32 33 34 35 36 37 38 39 40 41 42 43 44 45 46 47 48 49
000
ASUS41 KALY 280510
RWRALY

NEW YORK STATE HOURLY WEATHER ROUNDUP
NATIONAL WEATHER SERVICE ALBANY NY
100 AM EDT WED OCT 28 2020

NOTE: "FAIR" INDICATES FEW OR NO CLOUDS BELOW 12,000 FEET WITH NO
SIGNIFICANT WEATHER AND/OR NO OBSTRUCTIONS TO VISIBILITY.

NYZ032-033-038>043-046>054-057>066-NYZ062>081-082-084-280600-
EAST


CITY           SKY/WX    TMP DP  RH WIND       PRES   REMARKS
ALBANY         LGT RAIN  38  38 100 N6        30.16F WCI  33
GLENS FALLS    LGT RAIN  35  33  92 CALM      30.15F
POUGHKEEPSIE   CLOUDY    50  41  71 N5        30.12S
NEWBURGH       CLOUDY    50  41  71 S6        30.12F
MONTGOMERY     CLOUDY    48  43  82 N5        30.12S
WHITE PLAINS   MOCLDY    50  41  71 E3        30.12F
ISLIP          PTCLDY    53  44  71 CALM      30.13F
NEW YORK CITY  CLOUDY    56  41  57 E5        30.12F
CENTRAL PARK   CLOUDY    53  43  68 CALM      30.15F
$$

NYZ005>009-017-018-044>046-055-056-280600-
CENTRAL


CITY           SKY/WX    TMP DP  RH WIND       PRES   REMARKS
FULTON         CLOUDY    43  38  82 SW8       30.10F
SYRACUSE       CLOUDY    45  40  82 SW3       30.11F
ROME           CLOUDY    41  38  89 SE3       30.13F
ELMIRA         CLOUDY    45  44  97 CALM      30.10F
BINGHAMTON     CLOUDY    42  40  92 CALM      30.09F
MONTICELLO     CLOUDY    44  40  85 N5        30.11S
$$

NYZ026>034-041>043-087-280600-
NORTH


CITY           SKY/WX    TMP DP  RH WIND       PRES   REMARKS
WATERTOWN      CLOUDY    37  35  92 E3        30.09F
FORT DRUM      NOT AVBL
OGDENSBURG     CLOUDY    32  32 100 CALM      30.10F
MASSENA        CLOUDY    33  28  81 CALM      30.15F
SARANAC LAKE   CLOUDY    31  31 100 CALM      30.06F
PLATTSBURGH    CLOUDY    35  30  82 CALM      30.15F
$$

NYZ001>004-010>016-019>021-085-280600-
WEST


CITY           SKY/WX    TMP DP  RH WIND       PRES   REMARKS
NIAGARA FALLS  CLOUDY    40  38  93 W3        30.09F
BUFFALO        DRIZZLE   41  39  93 SW3       30.10F FOG
DUNKIRK        CLOUDY    43  40  89 S6        30.11F
JAMESTOWN      LGT RAIN  38  38 100 CALM      30.09F FOG
WELLSVILLE     CLOUDY    39  39 100 CALM      30.09F
ROCHESTER      CLOUDY    41  40  96 CALM      30.11F
PENN YAN       CLOUDY    43  39  86 S6        30.10F
$$

             KEY
       WCI = WIND CHILL INDEX
       VSB = VISIBILITY
       HX  = HEAT INDEX
$$



USA.gov is the U.S. government's official web portal to all federal, state and local government web resources and services.